Showing default

HULIANWANG DIGUI-10, 62332

Orbit data source: Space-Track

HULIANWANG DIGUI-10, 62332 is a payload satellite owned by Zhongguo Xingwang (CN) in LEO that was launched on Mon, 16 Dec 2024 UTC via a CHANG ZHENG 5B/YZ-2 launch vehicle from the Wenchang Satellite Launch Center (WSC). Payload-class satellites include a variety of spacecraft equipped with specific instruments for various scientific and technological missions. These include communications satellites like Starlink; space stations such as the ISS; scientific satellites like the Hubble; Earth observation satellites from companies like Planet Labs, Umbra, and HawkEye 360; GPS; miniature CubeSats for education and research; and military/defense satellites.

Loading next visibility...
Identifier
62332, 2024-240K
Orbit
LEO
Country
Flag of CNCN / PRC
Related business
Manufacturer
CAST?
Mission
Operational Civil Communications
Bus & Motor
GUOWANG C, Unknown motor
Mass
~800 kg wet, ~800 kg dry
Launch date (UTC)
2024-12-16 (1 year ago)
Launch vehicle
CHANG ZHENG 5B/YZ-2
Launch site
Wenchang Satellite Launch Center (WSC)
Object type
Payload
Rocket body
Debris
Shape & HBR
Box + 2 Pan, 5.0 m
Radar Cross Section
5.935 m², Large (>1 m²)

Expand to show TLE details & history
Last TLE update: 14 hours ago

TLE from 14 hours ago
0 HULIANWANG DIGUI-10
1 62332U 24240K   25341.27241341  .00000117  00000-0  23883-3 0  9993
2 62332  86.5023  48.0971 0001881  90.9729 269.1621 13.24413848 47236
Epoch: 2025-12-07T06:32Z
TLE epoch observation values (Epoch: 2025-12-07T06:32:16.518Z)
Latitude
0.00002°
Longitude
-126.2599°
Altitude
1,170.823 km
Speed
7.268 km/s
True Right ascension
03h 12m 23s
True Declination
0° 00' 00"
Sunlit
Object was in full shadow at epoch
Visualization orbit readout
Latitude
Unknown
Longitude
Unknown
Altitude
Unknown
Speed
Unknown
Apparent Right ascension
Unknown
Apparent Declination
Unknown
Sunlit
N/A
Visualization observer readout
Local Sidereal Time
18:32:42
Azimuth
Unknown
Elevation
Unknown
Doppler factor
Unknown
Orbital elements
Apogee altitude
1,166.446 km
Perigee altitude
1,163.609 km
Semi-major axis
7,543.164 km
Eccentricity
0.00019
Inclination
86.5023°
RAAN
48.0971°
Arg. of periapsis
90.9729°
True anomaly
269.14055°
Mean anomaly
269.1621°
Eccentric anomaly
269.15132°
Mean motion
3.31293 °/min
Orbital period
108.67 mins
BSTAR
0.00023883
Loading maneuver chart data...
Computing Atmospheric mass density...
Loading historical data...
Loading historical data...
Loading historical data...
Loading historical data...
Loading historical data...
Loading historical data...
Loading historical data...

Documentation

Showing up to 5 results
|